Location: Eckley
(38.0538°N, 122.2027°W)
Time: 11:37:48
(UTC+00:00)

Daily predictions for brighter satellites

Satellite Brightness Start Highest point End
(mag) Time Altitude Azimuth Time Altitude Azimuth Time Altitude Azimuth
Cosmos 1340 4.2 12:03:33 10° NW 12:06:06 18° W 12:08:38 10° SW
PAYLOAD A 4.3 12:03:31 10° N 12:08:43 58° WNW 12:14:00 10° SSW
FENGYUN 3A 4.3 12:08:54 10° N 12:13:57 41° WNW 12:18:59 10° SW
OAO 3 Rocket 3.6 12:09:27 10° WSW 12:14:15 52° S 12:19:00 10° E
Cosmos 2219 3.3 12:08:43 10° SSW 12:14:22 89° ESE 12:20:02 10° NNE
Cosmos 1544 4.1 12:12:04 10° SSE 12:15:26 46° E 12:18:49 10° NNE
ISS -2.2 12:13:11 10° W 12:16:09 28° NNW 12:19:07 10° NNE
IRS-P3 4.3 12:13:28 10° N 12:18:41 57° WNW 12:23:52 10° SSW
Cosmos 1408 Rocket 4.4 12:15:39 10° SW 12:19:33 32° WNW 12:23:26 10° NNW
Cosmos 44 Rocket 4.4 12:15:27 10° S 12:20:01 41° ESE 12:24:32 10° NE
Sich 1 3.3 12:16:43 10° S 12:21:02 72° E 12:25:20 10° NNE
USA 215 3.9 12:15:37 10° NE 12:21:48 47° NW 12:27:59 10° WSW
Meteor 1-19 Rocket 4.4 12:15:58 10° NNW 12:21:59 80° W 12:28:00 10° S
